Regional Weather Roundup
Issued by NWS

Home | Current Version | Previous Version | Text Only | Print | Product List | Glossary On
Versions: 1 2 3 4 5 6 7 8 9 10 11 12 13 14 15 16 17 18 19 20 21 22 23 24 25 26 27 28 29 30 31 32 33 34 35 36 37 38 39 40 41 42 43 44 45 46 47
000
ASUS46 KPQR 041110
RWROR

OREGON REGIONAL WEATHER ROUNDUP
NATIONAL WEATHER SERVICE PORTLAND OR
400 AM PDT FRI SEP 04 2015

NOTE: "FAIR" INDICATES FEW OR NO CLOUDS BELOW 12,000 FEET WITH
NO SIGNIFICANT WEATHER AND/OR OBSTRUCTIONS TO VISIBILITY.

ORZ001>013-041200-
NORTHWEST OREGON


CITY           SKY/WX    TMP DP  RH WIND       PRES   REMARKS
ASTORIA        PTCLDY    46  45  96 SE6       29.97S
NEWPORT        MOCLDY    48  46  93 E7          N/A
PORTLAND       CLOUDY    52  50  93 N3        29.98F
VANCOUVER WA   CLOUDY    51  49  92 CALM      29.98S FOG
SCAPPOOSE      CLEAR     45  44  97 CALM      29.97S FOG
HILLSBORO      PTCLDY    44  43  96 CALM      29.98R
AURORA         PTCLDY    49  48  97 NE3       29.98F
MCMINNVILLE    CLOUDY    49  45  86 NW3       29.99S
SALEM          MOCLDY    51  47  86 NW3       29.96F
CORVALLIS      PTCLDY    45  43  93 NW5       29.98S
EUGENE         PTCLDY    47  43  86 CALM      29.97S
$$

ORZ021-028-041200-
SOUTHWEST OREGON


CITY           SKY/WX    TMP DP  RH WIND       PRES   REMARKS
NORTH BEND     PTCLDY    52  50  93 SE7       29.98S
BROOKINGS      MOCLDY    52  51  96 CALM      29.93S
ROSEBURG       PTCLDY    52  44  74 CALM      29.96S
SEXTON SUMMIT  CLOUDY    41  40  96 N8        29.93S
MEDFORD        CLEAR     51  39  63 CALM      29.93S
$$

ORZ014>016-041-041200-
COLUMBIA GORGE


CITY           SKY/WX    TMP DP  RH WIND       PRES   REMARKS
TROUTDALE      CLOUDY    52  47  83 SE3       29.98S
THE DALLES     PTCLDY    51  43  74 CALM      29.94S
$$

ORZ029>031-041-044-049-050-061>064-502-503-505>511-041200-
EASTERN OREGON


CITY           SKY/WX    TMP DP  RH WIND       PRES   REMARKS
REDMOND        PTCLDY    33  29  85 S3        29.95S
BEND           CLEAR     36  32  87 S5        29.95F WCI  32
PRINEVILLE     MOCLDY    34  30  86 CALM      29.94S
KLAMATH FALLS  CLOUDY    40  35  83 CALM      29.90F
LAKEVIEW       PTCLDY    43  28  56 N12         N/A
HERMISTON      CLEAR     41  35  79 CALM      29.93S
PENDLETON      CLEAR     44  33  65 S5        29.93S
JOHN DAY       CLEAR     42  30  62 CALM      29.93F
MEACHAM        CLEAR     27  22  81 CALM      29.94F
LA GRANDE      CLEAR     39  23  52 NW6       29.93S WCI  35
BAKER CITY     CLEAR     34  30  85 SE3       29.93S
BURNS          CLOUDY    39  24  55 W6        29.91S WCI  35
ROME             N/A     40  25  55 CALM      29.87F
ONTARIO        CLEAR     50  34  54 W5        29.87F
$$



USA.gov is the U.S. government's official web portal to all federal, state and local government web resources and services.